Vorticity
6 6 6 6 6 5 5 4 4 4 4 4 4 4 5 6 6 6 6 6 5 5 6 7 10 8 8 8 9 -1 10 6 5 4 4 6 7 7 7 10 7 9 8 7 7 5 5
6 5 6 5 4 4 5 5 4 4 5 5 4 5 5 5 6 6 6 6 6 5 5 6 7 10 9 5 8 8 6 5 6 6 5 6 6 7 4 8 9 11 7 7 4 5 6
5 6 6 5 5 5 3 5 5 5 4 5 6 6 6 6 6 6 6 7 6 6 6 5 6 9 8 12 6 10 5 2 6 6 6 6 7 7 8 10 10 6 11 8 6 5 4
6 4 5 6 6 4 5 4 5 6 6 5 5 6 7 7 6 6 5 6 8 6 5 6 5 6 2 5 7 9 8 8 7 7 7 8 7 6 6 4 4 11 9 5 14 7 6
7 8 7 6 5 6 5 5 5 5 6 7 6 5 6 8 7 7 6 6 7 8 7 5 6 5 11 11 9 11 9 9 8 9 9 7 6 6 7 5 8 11 -2 16 4 11 5
9 8 6 8 8 8 7 6 5 6 6 7 7 7 7 7 8 8 7 6 7 8 7 6 8 14 14 9 6 9 10 9 10 7 6 6 7 5 7 5 -8 14 18 2 8 16 13
4 7 9 9 6 7 8 8 7 7 6 6 7 7 7 8 8 8 8 8 9 10 10 7 -8 -4 -6 -4 4 5 6 5 7 6 7 9 7 1 16 13 10 -3 10 12 14 8 6
9 3 4 5 8 8 9 8 9 6 7 7 6 7 8 7 8 8 8 8 7 2 8 5 7 7 6 6 4 5 13 14 8 6 6 6 3 13 9 8 9 4 -1 0 2 3 6
-3 7 6 8 6 6 7 8 9 8 7 7 7 6 6 7 8 8 8 9 7 8 7 7 11 11 8 6 6 6 13 14 14 11 12 10 -3 18 11 9 11 7 6 6 0 1 6
14 11 2 3 2 12 6 5 8 9 7 8 8 8 7 7 7 8 8 12 10 9 20 14 15 24 21 19 16 13 14 13 15 16 13 22 14 6 13 9 10 9 7 9 9 11 6
9 6 -10 -8 7 6 10 8 4 6 9 9 8 8 8 8 6 8 8 9 11 10 15 20 21 7 7 14 3 16 16 14 9 11 11 5 9 20 7 8 8 7 7 6 9 9 10
9 8 11 4 13 2 8 13 10 3 6 8 9 9 8 8 7 10 8 10 13 20 15 7 1 0 16 12 5 6 12 11 11 6 5 6 -7 8 14 7 6 3 9 9 9 7 31
8 9 12 10 14 -5 -6 -1 1 11 7 2 7 8 10 8 7 8 11 11 17 -2 11 27 17 13 11 10 9 -0 7 7 -7 10 17 9 6 4 3 8 8 7 6 12 15 15 -2
7 8 8 10 11 11 13 15 3 1 12 20 4 6 6 8 8 8 10 18 3 21 13 -34 -9 8 8 9 11 6 3 2 6 3 -9 7 18 27 18 6 -10 26 7 -23 11 6 3
8 8 5 5 7 6 7 12 12 13 10 6 -2 16 18 4 7 7 12 17 -19 16 6 -5 9 17 -4 10 2 14 9 3 -1 13 -12 9 9 20 5 18 14 28 6 14 -16 16 11
7 8 9 7 6 8 10 10 10 11 6 8 17 22 -3 15 13 8 10 5 -11 16 -9 1 8 2 -8 20 12 9 2 25 32 10 8 14 8 6 4 8 7 -8 22 15 9 7 7
14 12 9 8 8 9 9 8 11 13 6 23 20 19 9 15 6 13 -0 -5 11 5 -8 25 13 -5 -5 -4 4 11 -16 13 4 8 24 15 -8 9 17 8 9 4 -6 -9 -9 -5 4
16 9 8 7 7 10 9 10 5 5 11 19 -11 -1 8 19 15 10 11 2 5 2 1 10 3 -4 -7 16 14 13 1 -1 -2 19 9 12 10 20 12 2 13 10 9 10 -34 25 -1
22 13 12 9 7 4 6 5 11 9 6 11 4 6 -9 6 19 0 11 16 22 8 4 10 15 9 9 2 -1 22 9 1 0 -2 8 11 11 14 33 39 19 4 6 6 6 -3 11
20 31 18 17 10 9 7 10 16 18 15 8 14 8 15 2 15 27 15 6 11 17 15 4 7 -9 14 8 9 -6 3 9 19 17 12 9 -0 -30 -37 -38 20 46 35 12 9 1 -9
13 19 26 19 20 13 4 9 11 10 12 17 -4 23 1 4 1 7 34 14 3 13 21 11 32 18 -10 18 16 9 9 1 3 11 17 6 -11 10 13 3 3 -9 -7 -1 14 13 -15
10 1 23 22 16 17 13 7 13 12 13 13 16 -26 -1 -14 10 9 -3 10 16 14 18 17 25 29 -2 10 -9 0 32 22 3 36 14 13 4 25 14 8 9 10 8 11 7 4 4
8 6 2 23 16 15 13 11 8 13 16 11 8 11 25 -0 11 11 16 5 12 12 24 32 47 19 16 26 25 14 -1 -12 -4 14 6 13 9 6 24 11 1 48 24 16 20 10 10
8 12 5 3 24 15 13 10 11 11 14 15 14 10 11 2 2 9 14 17 1 14 15 13 8 10 21 33 34 26 23 23 4 -15 14 6 17 1 14 7 11 20 12 13 14 19 26
8 12 4 7 17 19 15 12 13 8 11 11 14 9 23 0 19 2 34 24 1 12 13 21 18 15 13 14 20 33 28 33 22 21 16 17 18 3 -5 27 -16 -3 -2 4 7 2 17
15 13 5 16 12 18 13 20 15 10 10 10 14 5 29 -5 7 7 12 16 21 8 13 -1 -9 21 21 18 25 15 1 4 25 23 36 14 17 -18 10 5 -5 9 41 29 30 19 24
13 16 6 10 15 17 8 12 12 22 12 8 11 15 14 11 -2 17 -10 -1 15 15 4 0 22 22 19 15 15 10 7 1 6 8 26 21 19 -4 2 -4 19 13 0 -3 23 -2 23
15 12 9 17 22 19 13 7 9 3 10 12 8 10 11 15 4 -4 13 21 -18 -10 13 11 12 25 22 23 11 11 12 11 15 -2 8 14 20 39 19 4 21 22 22 10 12 14 17
17 7 11 16 17 17 13 12 13 13 5 11 8 8 11 11 2 6 16 17 22 22 3 16 9 -20 -1 -1 -3 17 11 6 7 2 27 22 -16 2 -15 25 -3 1 9 20 7 3 -7
Height
3164 3165 3165 3166 3167 3166 3166 3166 3166 3165 3164 3163 3162 3161 3161 3160 3159 3158 3156 3155 3154 3153 3151 3150 3148 3147 3147 3147 3148 3148 3148 3148 3149 3149 3149 3149 3149 3149 3149 3150 3150 3150 3150 3151 3152 3153 3154
3163 3163 3163 3163 3163 3166 3166 3165 3164 3164 3164 3163 3161 3159 3158 3158 3157 3156 3155 3155 3153 3152 3151 3150 3148 3146 3146 3146 3146 3146 3147 3147 3147 3148 3148 3148 3148 3148 3148 3148 3149 3148 3149 3149 3150 3151 3151
3162 3162 3162 3161 3162 3161 3161 3163 3163 3162 3161 3162 3161 3159 3157 3155 3155 3154 3153 3152 3152 3151 3150 3149 3148 3146 3145 3145 3144 3144 3144 3145 3145 3145 3145 3146 3145 3146 3146 3146 3146 3147 3147 3147 3147 3148 3148
3162 3160 3159 3159 3158 3159 3159 3158 3159 3160 3160 3158 3158 3158 3157 3155 3153 3152 3151 3150 3150 3149 3148 3146 3145 3144 3143 3142 3141 3141 3141 3141 3142 3142 3143 3143 3143 3143 3143 3144 3144 3145 3146 3145 3145 3145 3146
3160 3160 3159 3158 3157 3156 3155 3155 3155 3155 3156 3156 3154 3154 3154 3153 3151 3150 3149 3147 3147 3146 3145 3144 3143 3142 3141 3139 3139 3138 3138 3139 3139 3139 3139 3139 3140 3140 3141 3142 3143 3142 3141 3142 3142 3142 3142
3160 3158 3157 3155 3155 3155 3153 3152 3151 3151 3152 3151 3151 3149 3150 3150 3150 3148 3146 3144 3143 3142 3141 3140 3139 3141 3138 3137 3136 3136 3135 3135 3135 3135 3136 3137 3137 3136 3137 3139 3139 3139 3139 3139 3139 3140 3139
3158 3157 3156 3155 3154 3152 3151 3150 3149 3146 3146 3147 3147 3147 3145 3147 3146 3145 3144 3142 3142 3140 3137 3137 3136 3135 3134 3134 3133 3132 3132 3132 3132 3132 3132 3132 3133 3132 3135 3136 3136 3136 3136 3136 3137 3137 3137
3154 3153 3153 3152 3152 3151 3150 3148 3147 3145 3143 3142 3142 3143 3142 3141 3142 3140 3140 3138 3136 3136 3131 3131 3130 3129 3128 3128 3127 3127 3127 3128 3127 3127 3128 3130 3127 3130 3130 3131 3132 3133 3133 3133 3135 3134 3134
3151 3150 3149 3149 3148 3147 3147 3146 3144 3143 3140 3140 3138 3137 3137 3136 3136 3136 3135 3136 3132 3130 3127 3123 3123 3122 3122 3123 3121 3121 3121 3120 3120 3121 3122 3123 3125 3125 3126 3127 3129 3129 3130 3130 3132 3131 3130
3146 3146 3145 3144 3143 3143 3142 3141 3141 3140 3139 3136 3136 3135 3133 3131 3134 3132 3132 3132 3130 3126 3123 3119 3116 3114 3114 3115 3115 3115 3115 3118 3117 3117 3119 3120 3120 3121 3122 3124 3126 3127 3127 3127 3127 3127 3127
3140 3140 3140 3138 3138 3137 3137 3136 3135 3135 3135 3134 3133 3131 3130 3127 3127 3128 3129 3127 3127 3126 3123 3114 3110 3109 3109 3111 3111 3110 3111 3111 3113 3114 3117 3117 3116 3117 3118 3120 3122 3123 3123 3123 3124 3123 3122
3133 3132 3132 3133 3132 3132 3131 3130 3130 3130 3130 3129 3128 3128 3126 3125 3122 3124 3124 3123 3124 3126 3118 3109 3107 3106 3106 3106 3107 3107 3108 3109 3110 3111 3112 3113 3114 3115 3116 3117 3118 3119 3120 3120 3120 3120 3118
3126 3125 3125 3126 3125 3125 3125 3125 3124 3124 3124 3124 3123 3122 3123 3121 3121 3118 3119 3121 3122 3114 3111 3106 3103 3102 3103 3102 3103 3104 3104 3105 3107 3108 3108 3109 3109 3110 3112 3113 3114 3115 3117 3118 3119 3118 3112
3117 3117 3116 3116 3116 3115 3116 3117 3117 3117 3118 3117 3116 3116 3115 3117 3116 3115 3114 3115 3108 3102 3099 3100 3102 3100 3099 3100 3099 3099 3100 3100 3101 3102 3104 3104 3105 3104 3105 3107 3109 3109 3112 3112 3112 3113 3105
3107 3108 3108 3107 3107 3106 3107 3107 3108 3108 3109 3109 3109 3108 3108 3109 3108 3109 3110 3102 3095 3096 3097 3095 3095 3097 3096 3096 3096 3095 3094 3094 3095 3096 3099 3098 3098 3097 3099 3101 3104 3103 3104 3106 3106 3104 3103
3095 3095 3096 3096 3097 3097 3098 3098 3099 3100 3099 3099 3099 3099 3099 3099 3097 3098 3096 3086 3088 3092 3091 3090 3090 3089 3089 3090 3090 3089 3088 3086 3088 3089 3090 3091 3093 3093 3094 3096 3097 3097 3099 3101 3102 3101 3098
3082 3083 3084 3086 3087 3089 3089 3089 3090 3091 3089 3092 3090 3089 3089 3089 3087 3083 3075 3074 3080 3086 3087 3086 3082 3083 3083 3082 3083 3083 3081 3081 3082 3083 3084 3085 3087 3087 3088 3086 3087 3090 3090 3092 3094 3091 3088
3069 3071 3072 3073 3075 3078 3079 3079 3081 3081 3084 3084 3082 3081 3079 3080 3079 3072 3066 3068 3074 3075 3078 3076 3075 3074 3075 3078 3074 3074 3073 3077 3077 3078 3078 3080 3079 3077 3080 3079 3081 3081 3081 3084 3084 3082 3079
3058 3058 3060 3062 3064 3067 3069 3070 3071 3072 3075 3075 3074 3072 3069 3070 3066 3064 3063 3062 3062 3064 3066 3066 3066 3065 3067 3067 3069 3064 3065 3068 3070 3072 3072 3073 3071 3072 3072 3074 3071 3069 3069 3072 3073 3072 3068
3047 3048 3049 3050 3053 3056 3059 3061 3062 3064 3066 3068 3067 3062 3060 3060 3059 3057 3055 3052 3053 3053 3052 3054 3051 3055 3057 3055 3058 3055 3056 3058 3060 3063 3064 3065 3060 3057 3055 3057 3058 3057 3058 3062 3065 3063 3062
3039 3038 3038 3040 3041 3046 3049 3052 3054 3058 3059 3061 3055 3051 3053 3050 3051 3051 3048 3044 3046 3043 3043 3042 3040 3041 3044 3046 3047 3045 3046 3049 3051 3052 3053 3055 3050 3049 3049 3051 3051 3051 3051 3053 3051 3054 3052
3032 3031 3031 3032 3033 3036 3039 3043 3045 3049 3050 3050 3049 3050 3047 3047 3044 3042 3040 3041 3040 3037 3034 3033 3031 3034 3031 3029 3031 3035 3037 3040 3042 3040 3042 3041 3041 3040 3041 3042 3041 3040 3041 3041 3043 3044 3043
3026 3025 3025 3024 3026 3028 3030 3034 3037 3039 3039 3040 3040 3041 3043 3037 3039 3036 3033 3033 3035 3030 3027 3026 3025 3024 3023 3024 3024 3024 3025 3027 3031 3034 3035 3036 3035 3034 3032 3034 3033 3032 3025 3029 3030 3032 3033
3017 3017 3018 3019 3018 3020 3021 3025 3028 3030 3030 3032 3034 3035 3034 3031 3032 3031 3029 3027 3027 3025 3023 3023 3021 3017 3016 3016 3016 3016 3017 3018 3022 3024 3025 3025 3026 3028 3026 3028 3028 3014 3014 3016 3018 3020 3021
3008 3008 3010 3010 3011 3012 3014 3017 3019 3022 3022 3024 3026 3027 3026 3024 3024 3024 3024 3020 3017 3020 3019 3017 3015 3012 3009 3011 3010 3009 3007 3008 3008 3014 3015 3016 3017 3018 3020 3019 3011 3008 3009 3011 3009 3012 3014
3000 3001 3002 3002 3003 3004 3007 3009 3011 3014 3015 3017 3018 3021 3020 3019 3017 3019 3018 3017 3015 3013 3012 3012 3011 3007 3004 3006 3004 3003 3001 3000 2999 3002 3005 3009 3011 3015 3013 3013 3011 3006 3005 3004 3005 3005 3009
2992 2993 2994 2996 2995 2996 2999 3002 3004 3006 3008 3010 3012 3013 3014 3013 3012 3013 3012 3012 3013 3009 3007 3007 3009 3005 3001 2999 2998 2999 2997 2996 2996 2994 2995 3001 3004 3005 3006 3007 3002 3001 3003 3004 3006 3006 3003
2985 2986 2988 2987 2987 2989 2992 2994 2997 3000 3003 3004 3005 3007 3008 3007 3007 3007 3007 3008 3007 3005 3003 3003 3006 3001 2995 2993 2994 2994 2992 2992 2993 2992 2991 2994 2998 3000 3004 3005 3003 2999 2999 3002 2999 2998 3000
2979 2980 2981 2981 2982 2983 2985 2987 2990 2993 2997 2997 2999 3001 3002 3002 3001 3002 3001 3000 3000 3000 3000 2999 3000 2997 2992 2990 2992 2988 2988 2988 2988 2989 2989 2993 2993 2993 2996 2994 2992 2993 2993 2995 2995 2996 2998